Crane Lake, MN

1:30 AM CDT on May 25, 2017 (GMT -0500)
Crane Lake

Weather History for KCDD - October, 2013

Change the Weather History Date:

Friday, October 4, 2013

  Actual Average Record
Temperature  
Mean Temperature 48 °F -  
Max Temperature 60 °F 55 °F 78 °F (2011)
Min Temperature 35 °F 36 °F 26 °F (2000)
Degree Days  
Heating Degree Days 18    
Moisture  
Dew Point 42 °F    
Average Humidity 78    
Maximum Humidity 93    
Minimum Humidity 52    
Precipitation  
Precipitation 0.00 in - - ()
Sea Level Pressure  
Sea Level Pressure 30.18 in    
Wind  
Wind Speed 1 mph (NE)    
Max Wind Speed 7 mph    
Max Gust Speed -    
Visibility 10 miles    
Events Rain    
Averages and records for this station are not official NWS values.
T = Trace of Precipitation, MM = Missing Value Source: NWS Daily Summary

Daily Weather History Graph

Daily Weather History Graph

Search for Another Location

Airport or City:

Trip Planner

Search our weather history database for the weather conditions in past years. The results will help you decide how hot, cold, wet, or windy it might be!

Date:

Astronomy

Oct. 04, 2013 Rise Set
Actual Time 7:13 AM CDT 6:42 PM CDT
Civil Twilight 6:42 AM CDT 7:13 PM CDT
Nautical Twilight 6:06 AM CDT 7:49 PM CDT
Astronomical Twilight 5:29 AM CDT 8:26 PM CDT
Moon 6:50 AM CDT (10/4) 6:21 PM CDT (10/4)
Length of Visible Light 12h 30m
Length of Day
11h 28m
Waning Crescent, 0% of the Moon is Illuminated
Oct 4
Waning Crescent
Oct 4
New
Oct 11
First Quarter
Oct 18
Full
Oct 26
Last Quarter

Hourly Weather History & Observations

Time (CDT) Temp. Windchill Dew Point Humidity Pressure Visibility Wind Dir Wind Speed Gust Speed Precip Events Conditions
12:13 AM 48.2 °F - 44.6 °F 87% 30.10 in 10.0 mi Calm Calm - N/A   Scattered Clouds
12:33 AM 46.4 °F - 41.0 °F 81% 30.10 in 10.0 mi Calm Calm - N/A   Clear
12:53 AM 44.6 °F - 41.0 °F 87% 30.11 in 10.0 mi Calm Calm - N/A   Scattered Clouds
1:13 AM 44.6 °F - 41.0 °F 87% 30.12 in 10.0 mi Calm Calm - N/A   Overcast
1:33 AM 44.6 °F - 41.0 °F 87% 30.12 in 10.0 mi Calm Calm - N/A   Overcast
1:53 AM 44.6 °F - 39.2 °F 81% 30.12 in 10.0 mi Calm Calm - N/A   Scattered Clouds
2:13 AM 42.8 °F - 39.2 °F 87% 30.12 in 10.0 mi Calm Calm - N/A   Clear
2:33 AM 41.0 °F - 37.4 °F 87% 30.12 in 10.0 mi Calm Calm - N/A   Clear
2:53 AM 39.2 °F - 37.4 °F 93% 30.13 in 10.0 mi Calm Calm - N/A   Clear
3:13 AM 39.2 °F - 35.6 °F 87% 30.13 in 10.0 mi Calm Calm - N/A   Clear
3:33 AM 37.4 °F - 35.6 °F 93% 30.13 in 10.0 mi Calm Calm - N/A   Scattered Clouds
3:53 AM 37.4 °F - 35.6 °F 93% 30.12 in 10.0 mi Calm Calm - N/A   Scattered Clouds
4:13 AM 37.4 °F - 35.6 °F 93% 30.13 in 10.0 mi Calm Calm - N/A   Clear
4:33 AM 37.4 °F - 33.8 °F 87% 30.13 in 10.0 mi Calm Calm - N/A   Clear
4:53 AM 35.6 °F - 33.8 °F 93% 30.14 in 10.0 mi Calm Calm - N/A   Clear
5:13 AM 35.6 °F - 33.8 °F 93% 30.15 in 10.0 mi Calm Calm - N/A   Clear
5:33 AM 35.6 °F - 33.8 °F 93% 30.17 in 10.0 mi Calm Calm - N/A   Clear
5:53 AM 35.6 °F - 33.8 °F 93% 30.17 in 10.0 mi Calm Calm - N/A   Clear
6:13 AM 35.6 °F - 33.8 °F 93% 30.19 in 10.0 mi Calm Calm - N/A   Clear
6:33 AM 37.4 °F - 35.6 °F 93% 30.19 in 10.0 mi Calm Calm - N/A   Clear
6:53 AM 39.2 °F - 37.4 °F 93% 30.19 in 10.0 mi Calm Calm - N/A   Clear
7:13 AM 42.8 °F - 39.2 °F 87% 30.20 in 10.0 mi Calm Calm - N/A   Clear
7:33 AM 39.2 °F - 37.4 °F 93% 30.19 in 10.0 mi Calm Calm - N/A   Clear
7:53 AM 41.0 °F - 39.2 °F 93% 30.19 in 10.0 mi Calm Calm - N/A   Clear
8:13 AM 42.8 °F 41.1 °F 41.0 °F 93% 30.20 in 10.0 mi North 3.5 mph - N/A   Clear
8:33 AM 44.6 °F - 42.8 °F 93% 30.20 in 10.0 mi Calm Calm - N/A   Clear
8:53 AM 44.6 °F 43.1 °F 42.8 °F 93% 30.21 in 10.0 mi North 3.5 mph - N/A   Scattered Clouds
9:13 AM 46.4 °F 44.3 °F 44.6 °F 93% 30.22 in 10.0 mi NNE 4.6 mph - N/A   Mostly Cloudy
9:33 AM 48.2 °F - 44.6 °F 87% 30.21 in 10.0 mi North 3.5 mph - N/A   Mostly Cloudy
9:54 AM 48.2 °F - 44.6 °F 87% 30.22 in 10.0 mi NE 3.5 mph - N/A   Mostly Cloudy
10:13 AM 50.0 °F - 46.4 °F 87% 30.22 in 10.0 mi NE 3.5 mph - N/A   Overcast
10:33 AM 51.8 °F - 46.4 °F 82% 30.22 in 10.0 mi Calm Calm - N/A   Overcast
10:53 AM 55.4 °F - 48.2 °F 77% 30.22 in 10.0 mi NE 4.6 mph - N/A   Mostly Cloudy
11:13 AM 55.4 °F - 48.2 °F 77% 30.22 in 10.0 mi ENE 5.8 mph - N/A   Scattered Clouds
11:33 AM 55.4 °F - 46.4 °F 72% 30.22 in 10.0 mi NNE 3.5 mph - N/A   Clear
11:53 AM 55.4 °F - 46.4 °F 72% 30.22 in 10.0 mi NNE 6.9 mph - N/A   Scattered Clouds
12:13 PM 55.4 °F - 46.4 °F 72% 30.22 in 10.0 mi Calm Calm - N/A   Mostly Cloudy
12:33 PM 55.4 °F - 44.6 °F 67% 30.22 in 10.0 mi NNE 4.6 mph - N/A   Overcast
12:53 PM 57.2 °F - 46.4 °F 67% 30.22 in 10.0 mi NE 4.6 mph - N/A   Overcast
1:13 PM 60.8 °F - 46.4 °F 59% 30.21 in 10.0 mi ENE 4.6 mph - N/A   Mostly Cloudy
1:33 PM 60.8 °F - 44.6 °F 55% 30.21 in 10.0 mi NE 3.5 mph - N/A   Scattered Clouds
1:53 PM 60.8 °F - 46.4 °F 59% 30.20 in 10.0 mi North 6.9 mph - N/A   Mostly Cloudy
2:13 PM 60.8 °F - 42.8 °F 52% 30.19 in 10.0 mi NNE 4.6 mph - N/A   Overcast
2:33 PM 57.2 °F - 42.8 °F 59% 30.19 in 10.0 mi NNE 5.8 mph - N/A   Overcast
2:53 PM 57.2 °F - 42.8 °F 59% 30.19 in 10.0 mi NNE 5.8 mph - N/A   Overcast
3:13 PM 55.4 °F - 42.8 °F 63% 30.19 in 10.0 mi NE 4.6 mph - N/A   Overcast
3:33 PM 55.4 °F - 42.8 °F 63% 30.19 in 10.0 mi NE 3.5 mph - N/A   Overcast
3:53 PM 55.4 °F - 42.8 °F 63% 30.19 in 10.0 mi ENE 3.5 mph - N/A   Overcast
4:13 PM 53.6 °F - 42.8 °F 67% 30.20 in 10.0 mi Calm Calm - N/A   Overcast
4:33 PM 53.6 °F - 42.8 °F 67% 30.19 in 10.0 mi NNE 3.5 mph - N/A   Overcast
4:53 PM 53.6 °F - 42.8 °F 67% 30.18 in 10.0 mi NE 3.5 mph - N/A   Overcast
5:13 PM 53.6 °F - 42.8 °F 67% 30.18 in 10.0 mi Calm Calm - N/A   Overcast
5:33 PM 53.6 °F - 42.8 °F 67% 30.19 in 10.0 mi Calm Calm - N/A   Mostly Cloudy
5:53 PM 53.6 °F - 42.8 °F 67% 30.20 in 10.0 mi Calm Calm - N/A   Overcast
6:13 PM 53.6 °F - 42.8 °F 67% 30.20 in 10.0 mi Calm Calm - N/A   Overcast
6:33 PM 51.8 °F - 42.8 °F 71% 30.19 in 10.0 mi Calm Calm - N/A   Overcast
6:53 PM 51.8 °F - 42.8 °F 71% 30.19 in 10.0 mi NE 3.5 mph - N/A   Mostly Cloudy
7:13 PM 51.8 °F - 42.8 °F 71% 30.19 in 10.0 mi Calm Calm - N/A   Mostly Cloudy
7:33 PM 51.8 °F - 42.8 °F 71% 30.19 in 10.0 mi NNE 5.8 mph - N/A   Mostly Cloudy
7:53 PM 51.8 °F - 42.8 °F 71% 30.19 in 10.0 mi NE 3.5 mph - N/A Rain Light Rain
8:13 PM 51.8 °F - 42.8 °F 71% 30.19 in 10.0 mi NNE 3.5 mph - N/A   Light Drizzle
8:33 PM 51.8 °F - 42.8 °F 71% 30.19 in 10.0 mi NNE 5.8 mph - N/A   Overcast
8:53 PM 51.8 °F - 42.8 °F 71% 30.19 in 10.0 mi NNE 5.8 mph - N/A   Overcast
9:13 PM 51.8 °F - 42.8 °F 71% 30.19 in 10.0 mi NNE 4.6 mph - N/A   Overcast
9:33 PM 51.8 °F - 42.8 °F 71% 30.19 in 10.0 mi NNE 4.6 mph - N/A   Overcast
9:53 PM 51.8 °F - 42.8 °F 71% 30.19 in 10.0 mi NNE 6.9 mph - N/A   Overcast
10:13 PM 51.8 °F - 42.8 °F 71% 30.20 in 10.0 mi NE 3.5 mph - N/A   Overcast
10:33 PM 50.0 °F - 42.8 °F 76% 30.19 in 10.0 mi NE 4.6 mph - N/A   Overcast
10:53 PM 50.0 °F - 42.8 °F 76% 30.18 in 10.0 mi NE 4.6 mph - N/A   Overcast
11:13 PM 50.0 °F - 42.8 °F 76% 30.17 in 10.0 mi NE 6.9 mph - N/A   Overcast
11:33 PM 50.0 °F - 42.8 °F 76% 30.17 in 10.0 mi Calm Calm - N/A   Overcast
11:53 PM 50.0 °F - 41.0 °F 71% 30.16 in 10.0 mi ENE 3.5 mph - N/A   Overcast